SCP
0 0 0 0 0 0 0 0 1 1 0 1 2 3 2 2 2 2 4 5 6 7 8 10 9 7 5 7 10 10 9 9 10 9 6 4 3 2 2 2 3 3 3 3
0 0 0 0 0 0 0 0 1 1 0 1 2 3 2 2 2 2 4 5 6 7 8 10 10 7 6 7 10 10 9 9 9 8 6 4 3 2 2 2 2 3 4 4
0 0 0 0 0 0 0 0 0 0 0 1 1 2 2 2 2 3 4 6 6 7 8 9 8 7 6 7 9 9 9 8 8 7 5 4 3 2 2 2 2 3 4 5
0 0 0 0 0 0 0 0 0 0 0 0 1 1 1 1 2 3 5 6 6 6 7 7 6 6 6 6 6 7 7 7 6 5 4 4 3 3 2 2 3 4 5 6
0 0 0 0 0 0 0 0 0 0 0 0 0 0 1 1 2 3 4 5 6 6 7 7 6 5 5 5 5 5 5 6 5 4 4 3 3 3 3 3 4 5 6 6
0 0 0 0 0 0 0 0 0 0 0 0 0 0 0 1 1 2 4 5 6 6 6 5 5 5 5 6 6 6 5 5 5 5 4 4 4 3 3 3 4 4 4 4
0 0 0 0 0 0 0 0 0 0 0 0 0 0 0 1 1 2 3 6 7 6 5 5 5 6 7 8 8 7 6 5 5 5 5 5 5 4 4 4 3 3 3 3
0 0 0 0 0 0 0 0 0 0 0 0 0 0 1 1 2 2 3 5 6 5 5 6 9 10 11 10 10 9 7 5 5 5 5 6 5 5 4 3 3 2 2 2
0 0 0 0 0 0 0 0 0 0 0 0 0 0 1 1 2 2 3 5 6 6 6 10 15 17 17 16 13 10 8 6 5 4 4 5 5 5 4 3 2 2 2 2
0 0 0 0 0 0 0 0 0 0 0 0 0 1 1 1 2 2 4 7 8 8 9 13 18 19 19 18 14 10 8 6 5 4 3 4 4 5 5 4 3 3 2 2
0 0 0 0 0 0 0 0 0 0 0 0 0 0 1 1 2 3 6 9 9 9 10 13 15 15 15 14 11 9 8 6 5 4 3 3 3 4 4 4 4 3 3 3
0 0 0 0 0 0 0 0 0 0 0 0 0 0 1 2 4 6 9 10 9 8 9 10 11 11 12 10 8 8 8 7 6 4 3 3 3 3 3 3 3 3 3 3
0 0 0 0 0 0 0 0 0 0 0 0 0 1 1 3 6 8 10 10 9 7 7 8 8 10 12 12 10 9 9 9 8 7 6 5 4 3 3 3 3 3 3 3
0 0 0 0 0 0 0 0 0 0 0 0 0 1 2 4 6 8 9 9 8 8 8 7 8 10 13 13 11 10 10 10 10 10 9 7 6 5 4 4 4 4 4 4
0 0 0 0 0 0 0 0 0 0 0 0 0 1 1 3 5 6 7 7 8 10 9 8 9 11 13 13 11 10 10 12 13 13 12 10 9 8 6 5 5 5 5 5
0 0 0 0 0 0 0 0 0 0 0 0 0 1 1 3 4 5 5 6 8 11 11 9 9 10 11 11 9 9 10 12 14 15 14 13 12 11 9 7 6 6 6 6
0 0 0 0 0 0 0 0 0 0 0 0 1 1 2 3 4 5 6 7 9 11 11 9 8 7 8 8 7 8 9 11 13 14 14 15 15 13 11 8 7 6 6 6
0 0 0 0 0 0 0 0 0 0 1 1 1 2 4 4 5 7 9 11 11 11 10 8 7 6 6 6 7 8 9 11 13 14 15 16 16 15 12 8 7 6 6 6
0 0 0 0 0 0 0 0 0 0 1 1 1 3 4 5 7 10 12 13 13 13 11 9 7 6 6 6 6 8 9 11 12 14 16 17 16 15 13 9 6 5 5 5
0 0 0 0 0 0 0 1 1 1 1 1 2 3 4 5 7 9 11 13 13 14 14 13 11 8 7 6 6 7 9 10 11 13 15 16 16 15 13 10 7 6 5 4
0 0 0 0 0 0 1 1 1 1 1 1 2 4 5 5 6 8 9 10 11 13 16 17 15 11 8 6 6 7 8 9 10 12 13 14 14 13 12 10 8 6 5 4
0 0 0 0 0 0 1 1 1 1 1 1 2 4 4 4 5 5 6 5 6 10 15 18 16 12 9 6 6 6 6 7 9 11 11 11 11 10 9 9 7 5 4 4
0 0 0 0 0 0 0 0 0 0 1 1 2 2 3 4 4 4 4 3 3 6 11 14 13 10 8 6 5 5 5 7 8 9 8 8 8 7 6 6 5 4 4 4
0 0 0 0 0 0 0 0 0 1 1 1 1 1 2 3 3 3 3 2 2 3 6 8 8 7 6 5 4 4 5 6 8 7 6 6 6 5 5 4 3 3 3 3
0 0 0 0 0 0 0 0 0 1 1 1 1 1 1 2 2 2 2 2 2 2 3 4 4 3 3 2 3 3 4 6 7 7 6 6 6 5 4 3 2 2 1 1
0 0 0 0 0 0 0 0 0 0 0 0 0 1 1 1 2 2 2 2 2 2 2 2 2 2 1 1 2 3 4 6 7 6 6 6 5 4 3 2 2 1 1 0
Wind_Speed
2 3 4 8 8 7 5 5 7 9 7 2 5 6 8 7 7 9 9 10 10 9 8 8 9 9 9 8 8 9 8 7 6 4 4 3 2 2 1 2 3 3 3 3
1 5 10 7 5 5 6 6 8 8 6 2 4 5 5 5 7 10 11 11 10 8 7 8 8 8 9 8 8 8 8 7 6 5 4 3 3 2 2 1 1 2 3 3
8 8 7 6 6 6 7 7 7 7 5 3 1 3 2 2 2 5 8 10 11 13 12 10 9 8 9 9 8 8 8 7 6 6 4 3 3 2 1 1 1 1 2 3
6 8 6 6 7 7 7 8 6 5 1 3 1 2 5 2 1 4 6 8 10 11 10 10 10 8 9 8 7 7 8 7 6 7 6 7 5 3 3 2 2 1 2 2
6 6 6 8 9 7 8 7 5 4 2 2 1 2 6 1 2 4 6 9 10 11 11 11 10 9 8 7 6 6 7 6 6 6 6 6 4 3 2 2 2 2 1 2
8 6 7 8 7 6 5 1 3 3 4 1 5 3 4 3 6 6 6 8 9 9 9 9 8 7 6 5 5 6 6 5 5 6 5 5 5 5 5 4 3 2 1 1
6 7 5 4 3 3 1 4 3 4 3 5 3 3 5 5 4 7 8 7 7 8 8 8 8 8 7 7 6 6 7 5 4 5 5 5 5 5 6 5 4 3 2 2
3 6 5 3 5 4 4 9 8 5 4 4 2 2 4 2 1 3 6 7 7 7 7 7 7 7 8 8 7 7 7 6 5 5 4 4 4 3 3 3 3 3 2 2
5 6 5 5 4 6 2 3 8 7 2 0 2 1 3 3 4 4 5 7 6 6 7 7 7 7 7 7 6 7 7 6 5 5 5 4 4 3 3 3 3 2 2 2
5 3 5 3 2 1 5 4 5 5 3 2 2 2 3 2 1 3 4 6 5 5 6 6 7 7 6 5 5 5 6 6 5 5 4 4 3 3 3 3 3 3 2 2
4 3 4 2 2 3 1 2 4 4 5 5 2 5 5 7 5 5 4 5 6 6 6 5 6 6 7 6 6 5 4 4 4 4 4 4 3 3 3 3 3 2 2 2
2 5 2 4 4 5 5 5 6 4 3 4 4 6 3 5 5 6 5 4 4 5 5 6 7 6 6 6 6 5 5 5 4 4 4 4 3 3 3 2 3 3 3 2
3 5 1 6 6 3 1 2 4 5 4 3 3 5 1 2 4 5 6 5 4 4 4 4 5 5 6 6 5 5 5 5 4 4 4 4 3 3 3 3 3 3 3 2
4 4 6 7 6 3 2 2 1 5 4 3 4 4 1 1 2 3 4 5 4 4 4 4 5 4 5 5 5 5 4 4 4 4 4 4 3 3 3 3 3 3 3 3
4 2 2 4 4 2 1 1 1 2 4 5 4 5 5 5 5 5 5 5 5 5 4 4 5 5 5 4 4 4 4 4 5 4 4 4 3 3 2 2 2 2 2 2
4 2 1 2 2 1 2 3 2 2 2 4 4 3 3 3 3 3 4 5 5 4 4 3 4 5 5 5 5 4 4 4 4 4 4 4 3 3 2 2 2 2 2 2
1 2 2 2 3 2 3 3 3 2 1 4 4 5 2 3 4 5 4 5 5 5 5 4 5 5 5 5 5 4 4 3 3 3 3 3 4 4 3 3 2 2 2 2
4 3 2 1 1 4 7 3 2 3 1 2 2 3 6 6 6 5 4 5 4 5 5 4 4 4 3 3 4 4 3 3 2 1 2 2 3 3 2 2 2 2 2 2
5 6 3 2 2 3 3 2 1 3 1 1 2 3 4 4 5 3 2 3 3 4 4 4 3 3 3 3 3 4 3 3 3 1 1 2 2 3 2 2 3 2 2 2
4 5 4 3 2 4 4 4 1 5 0 2 2 4 4 5 3 3 1 2 3 3 3 3 3 3 3 2 3 4 3 3 3 2 2 2 2 3 3 3 2 1 1 1
3 3 2 3 3 4 4 5 2 4 6 3 2 4 5 4 4 4 3 3 4 4 4 4 3 3 2 3 4 4 3 3 3 2 2 1 1 2 2 2 1 2 1 1
3 2 2 3 2 5 4 3 2 5 3 2 3 3 4 4 3 4 5 4 4 4 3 3 2 1 1 3 4 3 2 3 2 2 2 1 1 1 1 1 1 1 2 1
1 4 4 5 5 5 2 2 3 4 4 2 3 4 6 6 5 5 4 4 3 3 3 2 2 1 1 2 3 4 3 2 2 2 2 2 1 0 1 1 1 1 1 1
3 2 2 1 1 1 0 0 1 3 4 3 4 5 5 5 5 5 4 3 2 2 2 2 3 2 1 1 1 3 3 3 3 3 2 2 2 1 0 1 1 1 2 2
3 1 1 0 2 2 2 1 1 3 4 5 5 5 5 5 4 4 4 3 3 2 1 1 2 2 2 1 1 1 2 3 3 3 2 2 2 2 2 1 1 2 2 3
2 2 3 4 4 2 3 2 2 4 4 4 5 4 4 5 5 4 3 2 2 2 2 1 1 1 1 1 1 2 2 3 3 3 2 2 2 2 2 1 1 2 1 2
Wind_Direction
220 109 219 226 210 209 236 261 272 273 272 237 235 228 229 210 181 172 166 163 165 170 167 153 146 146 142 145 151 154 154 156 149 144 146 148 152 150 145 158 157 158 155 150
28 243 231 227 235 238 253 266 275 286 282 251 231 235 224 204 184 173 168 170 166 158 153 153 145 147 152 158 160 155 158 161 160 161 157 153 147 153 159 161 153 157 148 155
205 237 228 221 238 247 257 242 250 260 297 333 102 306 283 260 188 165 166 170 167 166 164 157 149 159 161 166 164 161 164 164 160 151 134 116 91 72 81 136 180 179 155 152
235 247 240 232 235 216 249 248 247 254 282 285 142 238 275 231 176 179 176 167 168 165 160 160 158 161 166 166 160 156 159 159 159 156 155 155 155 163 188 185 174 160 147 143
246 233 232 233 233 213 227 244 244 247 226 303 319 147 276 311 190 213 189 173 168 167 163 161 163 163 159 154 153 148 148 151 155 160 163 164 160 161 149 141 141 148 145 146
246 248 217 221 235 224 226 305 355 30 68 298 250 158 267 253 212 204 189 168 163 162 158 156 152 144 137 140 146 145 144 153 157 154 155 162 160 154 148 152 161 172 172 185
280 279 261 212 233 287 136 94 34 357 5 248 255 145 238 260 215 188 176 164 155 152 148 149 148 148 150 152 154 155 149 156 161 156 157 160 162 164 169 169 172 166 171 197
224 274 257 217 184 199 205 147 159 191 218 269 334 181 244 269 79 140 145 142 138 140 144 151 159 159 161 161 161 160 160 163 166 165 164 160 156 156 160 163 163 172 181 199
194 248 265 225 184 156 176 189 170 146 191 187 285 277 310 23 64 88 112 113 123 137 144 150 156 156 159 159 160 165 167 168 172 172 159 153 154 150 149 152 148 158 171 180
174 236 281 268 70 84 158 161 95 114 148 226 267 220 223 227 122 90 119 132 143 143 148 155 154 153 149 149 147 159 165 172 172 167 163 155 155 157 154 152 154 159 177 182
164 178 296 347 164 199 99 97 110 129 155 157 218 260 222 188 172 149 151 155 152 154 155 154 149 148 147 143 142 142 153 147 149 156 151 146 148 159 155 166 179 177 178 184
172 136 242 262 255 195 161 165 141 150 225 165 166 256 273 167 153 138 130 132 139 150 154 151 145 141 144 148 148 153 157 155 163 166 155 157 160 161 163 182 194 186 187 195
143 117 73 336 337 357 120 159 149 142 135 152 163 251 321 123 123 132 130 126 118 131 133 133 135 146 149 148 150 159 163 164 167 159 156 157 160 165 178 193 193 187 189 195
120 121 157 197 221 236 267 294 151 131 152 197 206 201 223 137 123 129 133 134 128 125 125 126 127 140 151 151 154 158 153 162 165 159 157 164 179 184 187 188 186 190 188 185
91 132 196 222 239 213 240 278 227 163 173 176 205 185 204 191 179 165 147 138 124 119 117 128 137 139 136 138 150 160 163 173 174 166 170 185 187 183 178 183 188 187 189 191
66 103 63 313 290 311 312 288 247 207 155 153 150 211 230 181 137 125 133 137 139 138 130 126 133 134 140 147 154 158 168 177 174 170 179 182 172 176 183 190 183 175 187 195
63 99 91 270 295 355 281 254 208 203 154 160 189 219 185 145 143 155 161 155 155 151 137 133 148 156 160 158 156 166 168 163 157 178 180 176 171 176 189 193 179 189 197 192
150 125 134 202 36 222 240 245 145 138 98 109 143 178 166 172 174 164 153 152 152 154 149 141 142 147 150 139 133 138 135 135 138 175 178 181 175 181 182 177 186 204 206 203
158 145 134 134 189 260 296 327 76 124 49 38 125 138 138 125 88 59 91 135 150 151 150 149 149 146 138 135 133 122 126 129 127 157 203 192 175 173 181 196 206 204 197 211
87 110 126 145 173 225 256 299 290 111 264 320 127 137 136 112 120 233 222 129 119 112 121 124 117 117 131 148 131 124 133 131 154 183 208 197 179 171 181 197 207 202 187 205
51 58 131 167 199 255 277 302 28 143 220 240 161 144 139 147 184 195 155 117 119 113 109 109 105 119 156 149 127 126 136 170 189 184 167 171 182 189 187 180 181 175 182 182
153 144 177 157 183 252 304 354 150 204 212 165 142 131 122 122 118 120 118 111 113 107 100 104 99 116 133 137 133 138 180 206 169 152 145 164 202 196 159 149 170 174 169 169
146 183 181 180 203 231 237 204 217 165 145 142 133 128 123 117 122 120 116 117 110 110 104 102 110 107 106 131 152 170 209 194 151 141 162 176 184 165 154 164 182 197 190 190
327 24 93 81 261 238 338 211 157 134 128 124 120 124 124 128 136 131 129 128 120 106 109 110 126 143 183 189 187 198 199 170 153 164 177 185 174 168 197 180 177 178 197 201
273 356 49 277 279 10 7 34 116 98 99 107 119 124 131 131 136 141 143 152 144 128 97 134 154 175 214 206 218 210 190 165 164 176 181 190 190 180 178 198 216 203 214 204
251 187 180 222 234 194 241 253 119 105 108 124 126 120 132 138 146 144 145 161 155 147 145 143 132 191 212 211 222 223 196 171 167 177 187 195 198 191 182 176 333 344 244 243